[[{"header":{"parameterUnit":"m.s-1","parameterCategory":1,"la1":30.2991,"la2":30.254,"lo1":-89.0895,"lo2":-89.0444,"dy":0.0017,"dx":0.0017,"nx":28,"ny":28,"refTime":"2024-09-04T09:00:00:Z","depth":0,"parameterNumber":2,"parameterNumberName":"U-component_of_WINDS"},"data":[0,0,0,0,0,0,0,0,0,0,0,0,0,0,0,0,0,0,0,0,0,0,0,0,0,0,0,0,0,0,0,0,0,0,0,0,0,0,0,0,0,0,0,0,0,0,0,0,0,0,0,0,0,0,0,0,0,0,-6.428,-6.428,0,-6.4329,-6.433,-6.433,-6.4154,-6.4148,-6.4143,-6.4138,-6.4189,-6.4195,-6.4201,0,0,0,0,0,0,0,0,0,0,0,0,0,-6.4033,-6.4038,-6.428,-6.428,-6.4281,-6.4329,-6.433,-6.433,-6.4154,-6.4148,-6.4142,-6.4136,-6.4187,-6.4194,-6.4202,0,0,0,0,0,0,0,0,0,0,0,0,0,-6.4117,-6.404,-6.428,-6.4199,-6.4192,-6.4329,-6.433,-6.433,-6.4156,-6.4148,-6.414,-6.4133,-6.4184,-6.4193,-6.4203,-6.4419,0,0,-6.4231,-6.4236,0,0,0,0,0,0,0,0,-6.4112,-6.4126,-6.421,-6.4205,-6.4198,-6.4227,-6.4261,-6.436,-6.4158,-6.417,-6.4138,-6.4129,-6.4208,-6.4215,-6.4242,-6.4422,-6.4424,-6.4232,-6.4238,-6.4242,-6.4245,0,0,0,0,0,0,0,-6.4107,-6.4123,-6.4299,-6.4212,-6.4204,-6.416,-6.4163,-6.4279,-6.4233,-6.4168,-6.4155,-6.4164,-6.4203,-6.4233,-6.4241,-6.4425,-6.4232,-6.424,-6.4246,-6.425,-6.4784,-6.4792,0,0,0,0,0,0,-6.4112,-6.4119,-6.4298,-6.4301,-6.4135,-6.4171,-6.4175,-6.4226,-6.4231,-6.4224,-6.417,-6.4155,-6.4221,-6.4231,-6.4243,-6.4496,-6.4242,-6.4251,-6.4256,-6.4775,-6.4786,-6.4795,0,0,0,0,0,0,-6.4107,-6.4129,-6.4296,-6.4207,-6.4224,-6.4184,-6.4242,-6.4231,-6.426,-6.4233,-6.4223,-6.421,-6.4215,-6.4229,-6.4376,-6.4495,-6.4255,-6.4264,-6.4765,-6.4779,-6.479,-6.5005,0,0,0,0,0,0,-6.4101,-6.4129,-6.4211,-6.421,-6.423,-6.443,-6.425,-6.4237,-6.4277,-6.4258,-6.4267,-6.4261,-6.421,-6.4363,-6.4386,-6.4504,-6.4271,-6.4755,-6.4771,-6.4786,-6.4987,-6.5024,-6.5055,0,0,0,0,0,-6.4093,-6.427,-6.4216,-6.4238,-6.4332,-6.4437,-6.4448,-6.4386,-6.4288,-6.437,-6.4351,-6.4261,-6.4479,-6.438,-6.4404,-6.4526,-6.4747,-6.4767,-6.4785,-6.4972,-6.5017,-6.5054,0,0,0,0,0,0,-6.4286,-6.4268,-6.4208,-6.439,-6.4417,-6.4407,-6.4508,-6.4435,-6.449,-6.4469,-6.4389,-6.4393,-6.4554,-6.4555,-6.4445,-6.4736,-6.4596,-6.4621,-6.473,-6.4772,-6.4805,-6.4802,-6.4279,0,0,0,0,0,-6.435,-6.4437,-6.4416,-6.4579,-6.4595,-6.455,-6.4593,-6.4543,-6.4567,-6.4577,-6.4569,-6.4596,-6.467,-6.4721,-6.4788,-6.4986,-6.4986,-6.5082,-6.5116,-6.5144,-6.5167,-6.5271,-6.5314,-6.4858,-6.4858,-6.4858,0,0,-6.4483,-6.4483,-6.4543,-6.4618,-6.4632,-6.4723,-6.4561,-6.4664,-6.4731,-6.4592,-6.4731,-6.4727,-6.4751,-6.4925,-6.5001,-6.493,-6.5292,-6.5169,-6.5191,-6.5198,-6.5295,-6.5339,-6.5377,-6.4871,-6.4869,-6.4867,0,0,-6.4771,-6.4781,-6.4917,-6.4935,-6.4958,-6.4927,-6.496,-6.4962,-6.4953,-6.5091,-6.4988,-6.5067,-6.5197,-6.5218,-6.5246,-6.5542,-6.5461,-6.5566,-6.5743,-6.5846,-6.5882,-6.5913,-6.6019,-6.6058,-6.5589,-6.5589,-6.559,0,-6.4933,-6.5067,-6.4996,-6.5107,-6.5143,-6.5021,-6.5158,-6.5179,-6.5223,-6.5251,-6.517,-6.533,-6.5338,-6.5515,-6.5587,-6.5614,-6.5649,-6.5565,-6.5882,-6.5913,-6.5941,-6.6041,-6.6081,-6.5602,-6.56,-6.5599,-6.5598,0,-6.5265,-6.536,-6.5467,-6.5513,-6.556,-6.5684,-6.5632,-6.5688,-6.5634,-6.5611,-6.5752,-6.5757,-6.5823,-6.5861,-6.5809,-6.6031,-6.5986,-6.5896,-6.5753,-6.5999,-6.6091,-6.6129,-6.562,-6.5616,-6.5612,-6.5609,0,0,-6.5678,-6.5682,-6.5723,-6.5742,-6.5758,-6.583,-6.5948,-6.6011,-6.6062,-6.6096,-6.6193,-6.6305,-6.6221,-6.6253,-6.6202,-6.6293,-6.6527,-6.6191,-6.619,-6.6253,-6.6771,-6.6839,-6.6885,-6.6473,-6.648,-6.6485,-6.6769,0,-6.5961,-6.6162,-6.6102,-6.6305,-6.6391,-6.6276,-6.6378,-6.64,-6.6382,-6.6452,-6.6431,-6.6512,-6.6396,-6.6414,-6.6499,-6.6481,-6.663,-6.6459,-6.6562,-6.6566,-6.6559,-6.6933,-6.7005,-6.7273,-6.6805,-6.6811,-6.6815,0,-6.6319,-6.6367,-6.6579,-6.658,-6.6614,-6.6708,-6.676,-6.6829,-6.6851,-6.6831,-6.6867,-6.6797,-6.6912,-6.677,-6.6927,-6.6813,-6.6851,-6.6848,-6.6857,-6.6864,-6.6706,-6.695,-6.7357,-6.7397,-6.6871,-6.6867,-6.6863,0,-6.6598,-6.6716,-6.6857,-6.6877,-6.6883,-6.6951,-6.6957,-6.697,-6.7012,-6.7059,-6.7085,-6.7145,-6.7178,-6.7226,-6.7174,-6.7075,-6.7339,-6.7192,-6.7326,-6.7328,-6.7387,-6.7384,-6.7806,-6.7412,-6.7412,-6.7411,-6.741,0,-6.6921,-6.7055,-6.6983,-6.707,-6.7217,-6.7146,-6.7292,-6.7285,-6.7298,-6.7381,-6.7286,-6.7366,-6.7292,-6.7366,-6.7326,-6.7463,-6.7478,-6.7465,-6.7453,-6.7474,-6.7476,-6.7498,-6.7478,-6.7422,-6.7419,-6.7417,-6.7415,0,-6.7258,-6.7215,-6.7362,-6.7355,-6.7356,-6.7465,-6.7458,-6.7538,-6.7513,-6.762,-6.7641,-6.7602,-6.7683,-6.7636,-6.772,-6.7692,-6.787,-6.7832,-6.7863,-6.7853,-6.7989,-6.7977,-6.844,-6.8497,-6.8068,-6.8072,-6.8075,0,-6.7467,-6.7567,-6.757,-6.7619,-6.7631,-6.7711,-6.7753,-6.7687,-6.7735,-6.7767,-6.7844,-6.7917,-6.7972,-6.8108,-6.8087,-6.815,-6.8113,-6.8271,-6.8122,-6.814,-6.8115,-6.811,-6.8119,-6.8301,-6.8306,-6.831,-6.8314,0,-6.7842,-6.7815,-6.788,-6.7938,-6.7991,-6.8033,-6.8067,-6.8113,-6.8046,-6.8105,-6.8187,-6.823,-6.8315,-6.8389,-6.8443,-6.8448,-6.8371,-6.8361,-6.8395,-6.8417,-6.8431,-6.8425,-6.7945,-6.835,-6.8347,-6.8344,-6.8342,-6.834,-6.812,-6.8204,-6.8219,-6.8294,-6.8313,-6.8347,-6.8422,-6.8406,-6.8473,-6.8537,-6.8494,-6.8591,-6.8609,-6.8673,-6.8689,-6.8763,-6.87,-6.875,-6.8762,-6.8776,-6.8794,-6.8419,-6.8773,-6.8772,-6.8771,-6.877,-6.8769,0,-6.849,-6.8494,-6.8564,-6.8614,-6.8674,-6.8595,-6.8628,-6.8683,-6.877,-6.8793,-6.8849,-6.8944,-6.9015,-6.8999,-6.9063,-6.9127,-6.9093,-6.9146,-6.914,-6.9143,-6.8847,-6.8811,-6.9172,-6.9172,-6.9172,-6.9172,-6.9172,-6.9172,-6.8689,-6.8826,-6.8802,-6.8947,-6.895,-6.9044,-6.907,-6.9101,-6.9119,-6.9229,-6.9287,-6.9276,-6.9284,-6.9348,-6.941,-6.9403,-6.9431,-6.9498,-6.9479,-6.9203,-6.9163,-6.9125,-6.9091,-6.9505,-6.9505,-6.9767,-6.9769,-6.9771]},{"header":{"parameterUnit":"m.s-1","parameterCategory":1,"la1":30.2991,"la2":30.254,"lo1":-89.0895,"lo2":-89.0444,"dy":0.0017,"dx":0.0017,"nx":28,"ny":28,"refTime":"2024-09-04T09:00:00:Z","depth":0,"parameterNumber":3,"parameterNumberName":"V-component_of_WINDS"},"data":[0,0,0,0,0,0,0,0,0,0,0,0,0,0,0,0,0,0,0,0,0,0,0,0,0,0,0,0,0,0,0,0,0,0,0,0,0,0,0,0,0,0,0,0,0,0,0,0,0,0,0,0,0,0,0,0,0,0,-1.2174,-1.2174,0,-1.2205,-1.2205,-1.2205,-1.2225,-1.2225,-1.2225,-1.2225,-1.2256,-1.2256,-1.2257,0,0,0,0,0,0,0,0,0,0,0,0,0,-1.2131,-1.2132,-1.2174,-1.2174,-1.2175,-1.2205,-1.2205,-1.2205,-1.2225,-1.2225,-1.2225,-1.2226,-1.2255,-1.2256,-1.2257,0,0,0,0,0,0,0,0,0,0,0,0,0,-1.2154,-1.2132,-1.2174,-1.2188,-1.219,-1.2204,-1.2205,-1.2205,-1.2225,-1.2225,-1.2225,-1.2226,-1.2255,-1.2256,-1.2257,-1.226,0,0,-1.226,-1.2261,0,0,0,0,0,0,0,0,-1.2153,-1.2156,-1.2186,-1.2187,-1.2189,-1.2211,-1.2201,-1.2224,-1.2225,-1.2212,-1.2225,-1.2226,-1.2241,-1.2243,-1.2248,-1.2261,-1.2262,-1.226,-1.2261,-1.2261,-1.2262,0,0,0,0,0,0,0,-1.2151,-1.2155,-1.2186,-1.2186,-1.2188,-1.2192,-1.2196,-1.2205,-1.2225,-1.2213,-1.2214,-1.2218,-1.2242,-1.2247,-1.2249,-1.2263,-1.226,-1.2261,-1.2262,-1.2262,-1.2278,-1.2278,0,0,0,0,0,0,-1.2148,-1.2153,-1.2185,-1.2187,-1.2171,-1.2193,-1.2197,-1.2204,-1.2225,-1.2228,-1.2218,-1.2219,-1.2245,-1.2248,-1.225,-1.2254,-1.2261,-1.2262,-1.2263,-1.2278,-1.2278,-1.2278,0,0,0,0,0,0,-1.2147,-1.215,-1.2184,-1.2171,-1.2175,-1.2194,-1.2201,-1.2204,-1.221,-1.2228,-1.2232,-1.222,-1.2245,-1.2249,-1.2257,-1.2255,-1.2263,-1.2264,-1.2278,-1.2278,-1.2278,-1.2261,0,0,0,0,0,0,-1.2145,-1.215,-1.2152,-1.217,-1.2176,-1.2191,-1.2201,-1.2205,-1.2212,-1.2213,-1.2231,-1.2234,-1.2246,-1.2255,-1.2258,-1.2257,-1.2265,-1.2279,-1.2278,-1.2278,-1.2262,-1.226,-1.2259,0,0,0,0,0,-1.2144,-1.2146,-1.2152,-1.2155,-1.2178,-1.2191,-1.2194,-1.2207,-1.2212,-1.2213,-1.2224,-1.2234,-1.2255,-1.2256,-1.2259,-1.2258,-1.2279,-1.2278,-1.2278,-1.2263,-1.2261,-1.2259,0,0,0,0,0,0,-1.2126,-1.2148,-1.2155,-1.2164,-1.2175,-1.2194,-1.2196,-1.2205,-1.2215,-1.2216,-1.2232,-1.2236,-1.2242,-1.2251,-1.2252,-1.2261,-1.2268,-1.2268,-1.2255,-1.2253,-1.2252,-1.2249,-1.2265,0,0,0,0,0,-1.2123,-1.2132,-1.2151,-1.2156,-1.2161,-1.2178,-1.2184,-1.2193,-1.2205,-1.221,-1.2223,-1.2234,-1.2243,-1.2249,-1.2258,-1.2263,-1.2267,-1.2264,-1.2262,-1.2261,-1.2261,-1.2263,-1.2262,-1.2276,-1.2276,-1.2276,0,0,-1.2117,-1.213,-1.2135,-1.2153,-1.2163,-1.2171,-1.2182,-1.219,-1.2196,-1.2212,-1.222,-1.2229,-1.2243,-1.2249,-1.2253,-1.2256,-1.2258,-1.226,-1.2259,-1.226,-1.2262,-1.2261,-1.226,-1.2276,-1.2276,-1.2276,0,0,-1.211,-1.2122,-1.2127,-1.2136,-1.2151,-1.2162,-1.2163,-1.2181,-1.2187,-1.2196,-1.2208,-1.2214,-1.223,-1.2239,-1.2246,-1.224,-1.2249,-1.2243,-1.2235,-1.2237,-1.2236,-1.2235,-1.2232,-1.2231,-1.2243,-1.2243,-1.2243,0,-1.2101,-1.2114,-1.2128,-1.2136,-1.2142,-1.2157,-1.2162,-1.2171,-1.2188,-1.2192,-1.2196,-1.2215,-1.2225,-1.2234,-1.2232,-1.2237,-1.2238,-1.2241,-1.2235,-1.2234,-1.2234,-1.2231,-1.223,-1.2242,-1.2242,-1.2242,-1.2242,0,-1.2101,-1.211,-1.2112,-1.2128,-1.2135,-1.2141,-1.2156,-1.2161,-1.217,-1.2179,-1.2187,-1.22,-1.2212,-1.2215,-1.2223,-1.2224,-1.2225,-1.2232,-1.2239,-1.2231,-1.2229,-1.2228,-1.2241,-1.2241,-1.2241,-1.2242,0,0,-1.2085,-1.2108,-1.2109,-1.2116,-1.2133,-1.2139,-1.2145,-1.2157,-1.216,-1.2171,-1.2176,-1.2189,-1.2194,-1.2202,-1.2211,-1.2213,-1.2207,-1.2219,-1.222,-1.2216,-1.2207,-1.2202,-1.2201,-1.2213,-1.2213,-1.2213,-1.2206,0,-1.208,-1.2093,-1.2105,-1.2112,-1.212,-1.2133,-1.2138,-1.2148,-1.2157,-1.2164,-1.2174,-1.2182,-1.219,-1.2194,-1.2197,-1.2207,-1.2205,-1.2208,-1.2217,-1.2217,-1.2213,-1.22,-1.2195,-1.2188,-1.2205,-1.2205,-1.2205,0,-1.2077,-1.2087,-1.2095,-1.211,-1.2113,-1.2118,-1.2129,-1.2136,-1.2147,-1.2153,-1.2161,-1.2171,-1.2177,-1.2183,-1.2191,-1.2193,-1.2197,-1.2202,-1.2203,-1.2204,-1.221,-1.22,-1.2186,-1.2185,-1.2204,-1.2204,-1.2205,0,-1.2064,-1.2079,-1.2085,-1.2091,-1.2109,-1.2111,-1.2119,-1.2131,-1.2136,-1.2146,-1.2149,-1.2159,-1.2164,-1.2172,-1.2183,-1.2187,-1.219,-1.2197,-1.2195,-1.2194,-1.2195,-1.2194,-1.218,-1.2198,-1.2198,-1.2198,-1.2198,0,-1.2057,-1.2061,-1.208,-1.2083,-1.2088,-1.2102,-1.2106,-1.2114,-1.2125,-1.213,-1.2142,-1.2146,-1.2162,-1.2168,-1.2177,-1.2182,-1.2184,-1.2189,-1.2192,-1.2188,-1.2187,-1.2191,-1.2191,-1.2198,-1.2198,-1.2198,-1.2198,0,-1.2043,-1.2056,-1.2063,-1.2079,-1.2083,-1.2086,-1.2099,-1.2103,-1.2112,-1.2119,-1.2121,-1.2135,-1.2143,-1.2155,-1.2167,-1.2173,-1.2176,-1.218,-1.2172,-1.2173,-1.217,-1.2169,-1.2157,-1.2156,-1.2174,-1.2174,-1.2174,0,-1.2038,-1.2042,-1.2057,-1.2062,-1.2069,-1.2076,-1.2081,-1.2095,-1.21,-1.2112,-1.2114,-1.2123,-1.2131,-1.2142,-1.2153,-1.2162,-1.2166,-1.2161,-1.2167,-1.2163,-1.2165,-1.2165,-1.2165,-1.216,-1.2159,-1.2159,-1.2159,0,-1.2028,-1.2033,-1.2041,-1.2051,-1.2057,-1.2065,-1.2074,-1.2076,-1.2091,-1.2096,-1.2104,-1.211,-1.2121,-1.2129,-1.2139,-1.2146,-1.2155,-1.2157,-1.2156,-1.2153,-1.2147,-1.2149,-1.2167,-1.2157,-1.2157,-1.2157,-1.2157,-1.2158,-1.2018,-1.2021,-1.2032,-1.204,-1.2048,-1.2055,-1.2059,-1.2068,-1.2075,-1.2085,-1.2093,-1.21,-1.211,-1.2124,-1.2131,-1.2136,-1.214,-1.214,-1.2139,-1.2139,-1.2137,-1.2147,-1.2138,-1.2138,-1.2138,-1.2138,-1.2138,0,-1.2007,-1.2015,-1.2022,-1.2033,-1.2039,-1.2046,-1.2056,-1.206,-1.2066,-1.2075,-1.2082,-1.209,-1.2098,-1.2109,-1.2117,-1.2119,-1.2123,-1.2121,-1.2121,-1.2122,-1.2134,-1.2133,-1.2118,-1.2118,-1.2118,-1.2118,-1.2118,-1.2118,-1.2003,-1.2008,-1.2015,-1.2023,-1.2031,-1.2038,-1.2042,-1.2049,-1.2056,-1.2065,-1.2071,-1.2078,-1.2088,-1.2096,-1.2103,-1.2106,-1.2109,-1.2105,-1.2109,-1.212,-1.2121,-1.2123,-1.2123,-1.2105,-1.2105,-1.2097,-1.2097,-1.2097]}]]